When you browse on this site, cookies collect data to enhance your experience and personalize the content and advertising you see.
Visit our Privacy Policy to learn more. By continuing to use the site, you agree to this use of cookies and data.
  • în România
  • Lista ţărilor
  • Pe 7 zile
  • Temperatura apei
  • Meteo pe hartă
  • Widget-uri
  • user-avatar
    Intrare

    Meteo pe oră la Nemirov

    Astăzi, 19 Ianuarie, Duminică

    Timp Temperatura Precipitaţii Vânt Presiune Umiditate
    00:00 -5°C° 0 mm 2 m/s 746 mmHg 89%
    01:00 -5°C° 0 mm 2 m/s 746 mmHg 89%
    02:00 -5°C° 0 mm 2 m/s 746 mmHg 90%
    03:00 -5°C° 0 mm 2 m/s 746 mmHg 91%
    04:00 -5°C° 0 mm 2 m/s 746 mmHg 92%
    05:00 -5°C° 0 mm 2 m/s 746 mmHg 93%
    06:00 -5°C° 0 mm 2 m/s 746 mmHg 93%
    07:00 -5°C° 0 mm 2 m/s 746 mmHg 93%
    08:00 -5°C° 0 mm 2 m/s 746 mmHg 94%
    09:00 -4°C° 0 mm 2 m/s 747 mmHg 89%
    10:00 -3°C° 0 mm 2 m/s 747 mmHg 85%
    11:00 -2°C° 0 mm 3 m/s 747 mmHg 80%
    12:00 -1°C° 0 mm 3 m/s 747 mmHg 78%
    13:00 -1°C° 0 mm 2 m/s 747 mmHg 75%
    14:00 +1°C° 0 mm 2 m/s 748 mmHg 73%
    15:00 -1°C° 0 mm 2 m/s 748 mmHg 78%
    16:00 -1°C° 0 mm 2 m/s 748 mmHg 82%
    17:00 0°C° 0 mm 1 m/s 748 mmHg 87%
    18:00 0°C° 0 mm 1 m/s 749 mmHg 88%
    19:00 -1°C° 0 mm 1 m/s 749 mmHg 90%
    20:00 -1°C° 0 mm 1 m/s 750 mmHg 91%
    21:00 -1°C° 0 mm 1 m/s 750 mmHg 91%
    22:00 -1°C° 0 mm 1 m/s 750 mmHg 91%
    23:00 -1°C° 0 mm 1 m/s 751 mmHg 91%

    Mâine, 20 Ianuarie, Luni

    Timp Temperatura Precipitaţii Vânt Presiune Umiditate
    00:00 -1°C° 0 mm 1 m/s 751 mmHg 91%
    01:00 -2°C° 0 mm 0 m/s 752 mmHg 91%
    02:00 -2°C° 0 mm 0 m/s 752 mmHg 91%
    03:00 -1°C° 0 mm 1 m/s 752 mmHg 91%
    04:00 -1°C° 0 mm 1 m/s 752 mmHg 91%
    05:00 -1°C° 0 mm 1 m/s 752 mmHg 91%
    06:00 -1°C° 0 mm 1 m/s 752 mmHg 91%
    07:00 -4°C° 0 mm 2 m/s 753 mmHg 91%
    08:00 -4°C° 0 mm 2 m/s 753 mmHg 92%
    09:00 -3°C° 0 mm 2 m/s 753 mmHg 85%
    10:00 -2°C° 0 mm 3 m/s 754 mmHg 79%
    11:00 -1°C° 0 mm 3 m/s 754 mmHg 73%
    12:00 0°C° 0 mm 3 m/s 754 mmHg 70%
    13:00 0°C° 0 mm 3 m/s 754 mmHg 68%
    14:00 0°C° 0 mm 4 m/s 754 mmHg 65%
    15:00 0°C° 0 mm 3 m/s 754 mmHg 69%
    16:00 -1°C° 0 mm 3 m/s 754 mmHg 73%
    17:00 -2°C° 0 mm 3 m/s 754 mmHg 77%
    18:00 -2°C° 0 mm 3 m/s 754 mmHg 80%
    19:00 -3°C° 0 mm 4 m/s 755 mmHg 84%
    20:00 -3°C° 0 mm 4 m/s 755 mmHg 87%
    21:00 -3°C° 0 mm 4 m/s 755 mmHg 89%
    22:00 -3°C° 0 mm 4 m/s 755 mmHg 91%
    23:00 -3°C° 0 mm 4 m/s 755 mmHg 92%

    Poimâine, 21 Ianuarie, Marţi

    Timp Temperatura Precipitaţii Vânt Presiune Umiditate
    00:00 -3°C° 0 mm 4 m/s 755 mmHg 93%
    01:00 -3°C° 0 mm 4 m/s 754 mmHg 94%
    02:00 -3°C° 0 mm 4 m/s 754 mmHg 94%
    03:00 -3°C° 0 mm 4 m/s 754 mmHg 93%
    04:00 -4°C° 0 mm 4 m/s 753 mmHg 92%
    05:00 -4°C° 0 mm 4 m/s 753 mmHg 91%
    06:00 -4°C° 0 mm 5 m/s 753 mmHg 88%
    07:00 -4°C° 0 mm 5 m/s 752 mmHg 85%
    08:00 -4°C° 0 mm 5 m/s 752 mmHg 82%
    09:00 -3°C° 0 mm 6 m/s 752 mmHg 75%
    10:00 -2°C° 0 mm 6 m/s 751 mmHg 68%
    11:00 -1°C° 0 mm 7 m/s 751 mmHg 61%
    12:00 0°C° 0 mm 7 m/s 750 mmHg 58%
    13:00 +2°C° 0 mm 7 m/s 750 mmHg 55%
    14:00 +2°C° 0 mm 7 m/s 749 mmHg 52%
    15:00 0°C° 0 mm 7 m/s 749 mmHg 55%
    16:00 +1°C° 0 mm 6 m/s 748 mmHg 59%
    17:00 -1°C° 0 mm 6 m/s 748 mmHg 62%
    18:00 -2°C° 0 mm 6 m/s 748 mmHg 64%
    19:00 -2°C° 0 mm 6 m/s 747 mmHg 65%
    20:00 -2°C° 0 mm 6 m/s 747 mmHg 67%
    21:00 -2°C° 0 mm 6 m/s 747 mmHg 66%
    22:00 -2°C° 0 mm 6 m/s 747 mmHg 65%
    23:00 -2°C° 0 mm 6 m/s 746 mmHg 64%

    22 Ianuarie, Miercuri

    Timp Temperatura Precipitaţii Vânt Presiune Umiditate
    00:00 -2°C° 0 mm 6 m/s 746 mmHg 64%
    01:00 -2°C° 0 mm 6 m/s 746 mmHg 64%
    02:00 -2°C° 0 mm 6 m/s 745 mmHg 64%
    03:00 -3°C° 0 mm 6 m/s 745 mmHg 66%
    04:00 -3°C° 0 mm 6 m/s 745 mmHg 68%
    05:00 -3°C° 0 mm 6 m/s 744 mmHg 71%
    06:00 -3°C° 0 mm 6 m/s 744 mmHg 73%
    07:00 -3°C° 0 mm 6 m/s 744 mmHg 75%
    08:00 -3°C° 0 mm 6 m/s 743 mmHg 77%
    09:00 -2°C° 0 mm 6 m/s 743 mmHg 75%
    10:00 -1°C° 0 mm 6 m/s 743 mmHg 74%
    11:00 -1°C° 0 mm 6 m/s 743 mmHg 73%
    12:00 +1°C° 0 mm 6 m/s 742 mmHg 70%
    13:00 +1°C° 0 mm 6 m/s 741 mmHg 67%
    14:00 +1°C° 0 mm 6 m/s 741 mmHg 63%
    15:00 -1°C° 0 mm 7 m/s 740 mmHg 71%
    16:00 -1°C° 0 mm 7 m/s 740 mmHg 78%
    17:00 -2°C° 0 mm 7 m/s 739 mmHg 86%
    18:00 -2°C° 0 mm 7 m/s 739 mmHg 85%
    19:00 -2°C° 0 mm 7 m/s 739 mmHg 83%
    20:00 -2°C° 0 mm 8 m/s 739 mmHg 82%
    21:00 -2°C° 0.1 mm 8 m/s 739 mmHg 86%
    22:00 -2°C° 0.1 mm 8 m/s 738 mmHg 90%
    23:00 -2°C° 0.1 mm 8 m/s 738 mmHg 95%

    23 Ianuarie, Joi

    Timp Temperatura Precipitaţii Vânt Presiune Umiditate
    00:00 -2°C° 0.1 mm 8 m/s 738 mmHg 93%
    01:00 -2°C° 0.1 mm 8 m/s 738 mmHg 92%
    02:00 -4°C° 0.1 mm 8 m/s 738 mmHg 90%
    03:00 -3°C° 0.2 mm 7 m/s 739 mmHg 89%
    04:00 -3°C° 0.2 mm 7 m/s 739 mmHg 88%
    05:00 -4°C° 0.2 mm 6 m/s 739 mmHg 87%
    06:00 -4°C° 0.2 mm 7 m/s 740 mmHg 87%
    07:00 -4°C° 0.2 mm 7 m/s 740 mmHg 87%
    08:00 -6°C° 0.2 mm 8 m/s 741 mmHg 86%
    09:00 -5°C° 0.1 mm 9 m/s 742 mmHg 82%
    10:00 -5°C° 0.1 mm 9 m/s 743 mmHg 77%
    11:00 -4°C° 0.1 mm 9 m/s 743 mmHg 73%
    12:00 -4°C° 0 mm 9 m/s 744 mmHg 70%
    13:00 -4°C° 0 mm 9 m/s 744 mmHg 68%
    14:00 -4°C° 0 mm 9 m/s 745 mmHg 65%
    15:00 -4°C° 0 mm 8 m/s 745 mmHg 67%
    16:00 -4°C° 0 mm 6 m/s 746 mmHg 68%
    17:00 -5°C° 0 mm 5 m/s 746 mmHg 70%
    18:00 -5°C° 0 mm 5 m/s 747 mmHg 70%
    19:00 -5°C° 0 mm 5 m/s 747 mmHg 70%
    20:00 -6°C° 0 mm 5 m/s 748 mmHg 70%
    21:00 -6°C° 0 mm 5 m/s 748 mmHg 70%
    22:00 -6°C° 0 mm 5 m/s 749 mmHg 70%
    23:00 -5°C° 0 mm 4 m/s 749 mmHg 70%

    24 Ianuarie, Vineri

    Timp Temperatura Precipitaţii Vânt Presiune Umiditate
    00:00 -5°C° 0 mm 4 m/s 749 mmHg 74%
    01:00 -5°C° 0 mm 4 m/s 749 mmHg 77%
    02:00 -5°C° 0 mm 4 m/s 749 mmHg 81%
    03:00 -5°C° 0 mm 4 m/s 749 mmHg 82%
    04:00 -5°C° 0 mm 4 m/s 749 mmHg 84%
    05:00 -5°C° 0 mm 4 m/s 749 mmHg 85%
    06:00 -5°C° 0 mm 4 m/s 749 mmHg 87%
    07:00 -5°C° 0 mm 3 m/s 749 mmHg 88%
    08:00 -5°C° 0 mm 3 m/s 749 mmHg 89%
    09:00 -4°C° 0 mm 3 m/s 749 mmHg 84%
    10:00 -2°C° 0 mm 3 m/s 750 mmHg 80%
    11:00 -1°C° 0 mm 3 m/s 750 mmHg 75%
    12:00 -1°C° 0 mm 3 m/s 749 mmHg 71%
    13:00 0°C° 0 mm 3 m/s 749 mmHg 68%
    14:00 +1°C° 0 mm 3 m/s 749 mmHg 64%
    15:00 0°C° 0 mm 3 m/s 748 mmHg 68%
    16:00 -1°C° 0 mm 3 m/s 748 mmHg 72%
    17:00 -2°C° 0 mm 3 m/s 748 mmHg 77%
    18:00 -2°C° 0 mm 3 m/s 748 mmHg 77%
    19:00 -2°C° 0 mm 2 m/s 748 mmHg 78%
    20:00 -3°C° 0 mm 2 m/s 748 mmHg 79%
    21:00 -3°C° 0 mm 2 m/s 748 mmHg 78%
    22:00 -3°C° 0 mm 2 m/s 747 mmHg 76%
    23:00 -3°C° 0 mm 2 m/s 747 mmHg 74%
    Arată mai mult